TimeEST,TemperatureF,Dew PointF,Humidity,Sea Level PressureIn,VisibilityMPH,Wind Direction,Wind SpeedMPH,Gust SpeedMPH,PrecipitationIn,Events,Conditions,WindDirDegrees,DateUTC
12:53 AM,39.0,33.1,79,30.15,10.0,Calm,Calm,-,N/A,,Clear,0,2013-02-21 05:53:00
1:53 AM,37.9,34.0,86,30.14,10.0,Calm,Calm,-,N/A,,Clear,0,2013-02-21 06:53:00
2:53 AM,37.0,33.1,86,30.13,10.0,Calm,Calm,-,N/A,,Clear,0,2013-02-21 07:53:00
3:53 AM,36.0,32.0,86,30.12,9.0,Calm,Calm,-,N/A,,Clear,0,2013-02-21 08:53:00
4:53 AM,34.0,30.0,85,30.13,10.0,Calm,Calm,-,N/A,,Clear,0,2013-02-21 09:53:00
5:53 AM,35.1,30.9,85,30.14,10.0,Calm,Calm,-,N/A,,Clear,0,2013-02-21 10:53:00
6:53 AM,34.0,30.0,85,30.17,8.0,Calm,Calm,-,N/A,,Clear,0,2013-02-21 11:53:00
7:53 AM,39.0,34.0,82,30.19,10.0,Calm,Calm,-,N/A,,Clear,0,2013-02-21 12:53:00
8:53 AM,50.0,27.0,41,30.21,10.0,ENE,8.1,-,N/A,,Clear,60,2013-02-21 13:53:00
9:53 AM,57.9,25.0,28,30.20,10.0,ENE,5.8,-,N/A,,Clear,60,2013-02-21 14:53:00
10:53 AM,63.0,27.0,26,30.19,10.0,East,3.5,-,N/A,,Partly Cloudy,100,2013-02-21 15:53:00
11:53 AM,66.0,28.9,25,30.18,10.0,SE,3.5,-,N/A,,Scattered Clouds,140,2013-02-21 16:53:00
12:53 PM,70.0,34.0,27,30.14,10.0,Calm,Calm,-,N/A,,Partly Cloudy,0,2013-02-21 17:53:00
1:53 PM,72.0,37.9,29,30.10,10.0,Variable,5.8,-,N/A,,Scattered Clouds,0,2013-02-21 18:53:00
2:53 PM,75.0,37.9,26,30.08,10.0,South,5.8,-,N/A,,Clear,180,2013-02-21 19:53:00
3:53 PM,73.9,34.0,23,30.07,10.0,South,4.6,-,N/A,,Scattered Clouds,170,2013-02-21 20:53:00
4:53 PM,73.0,37.0,27,30.06,10.0,SSE,4.6,-,N/A,,Scattered Clouds,160,2013-02-21 21:53:00
5:53 PM,71.1,41.0,34,30.05,10.0,SE,3.5,-,N/A,,Mostly Cloudy,130,2013-02-21 22:53:00
6:53 PM,62.1,44.1,52,30.05,10.0,Calm,Calm,-,N/A,,Mostly Cloudy,0,2013-02-21 23:53:00
7:53 PM,59.0,45.0,60,30.06,10.0,Calm,Calm,-,N/A,,Clear,0,2013-02-22 00:53:00
8:53 PM,63.0,45.0,52,30.06,10.0,ESE,3.5,-,N/A,,Mostly Cloudy,120,2013-02-22 01:53:00
9:53 PM,64.0,46.9,54,30.08,10.0,SE,8.1,-,N/A,,Mostly Cloudy,140,2013-02-22 02:53:00
10:53 PM,63.0,48.9,60,30.08,10.0,SE,6.9,-,N/A,,Partly Cloudy,130,2013-02-22 03:53:00
11:53 PM,62.1,50.0,65,30.08,10.0,SE,6.9,-,N/A,,Clear,140,2013-02-22 04:53:00